| time (UTC) | temp F | wind direction | speed knots | gust knots | rain 1hr in | rain 24hr in | rain mn in | humidity % | barometer mb |
| 20260507224510 | 40 | 221 | 0.9 | 2.6 | 0.00 | 0.00 | 0.00 | 91 | 1019.7 |
| 20260507223007 | 40 | 206 | 0.9 | 2.6 | 0.00 | 0.00 | 0.00 | 91 | 1019.8 |
| 20260507221505 | 40 | 221 | 1.7 | 2.6 | 0.00 | 0.00 | 0.00 | 91 | 1019.8 |
| 20260507220055 | 40 | 188 | 1.7 | 3.5 | 0.00 | 0.00 | 0.00 | 90 | 1019.8 |
| 20260507214554 | 41 | 198 | 1.7 | 3.5 | 0.00 | 0.00 | 0.00 | 89 | 1019.8 |
| 20260507213052 | 41 | 169 | 0.9 | 2.6 | 0.00 | 0.00 | 0.00 | 89 | 1019.7 |
| 20260507211551 | 42 | 170 | 1.7 | 2.6 | 0.00 | 0.00 | 0.00 | 89 | 1019.7 |
| 20260507210119 | 42 | 155 | 0.9 | 1.7 | 0.00 | 0.00 | 0.00 | 88 | 1019.7 |
| 20260507204600 | 43 | 135 | 0.9 | 1.7 | 0.00 | 0.00 | 0.00 | 87 | 1019.5 |
| 20260507203057 | 43 | 137 | 0.9 | 1.7 | 0.00 | 0.00 | 0.00 | 86 | 1019.5 |
| 20260507201549 | 44 | 136 | 0.9 | 2.6 | 0.00 | 0.00 | 0.00 | 85 | 1019.3 |
| 20260507200052 | 45 | 136 | 0.9 | 2.6 | 0.00 | 0.00 | 0.00 | 84 | 1019.3 |
| 20260507194536 | 45 | 136 | 0.0 | 1.7 | 0.00 | 0.00 | 0.00 | 83 | 1019.2 |
| 20260507193100 | 46 | 137 | 0.0 | 0.9 | 0.00 | 0.00 | 0.00 | 82 | 1019.0 |
| 20260507191530 | 47 | 137 | 0.0 | 0.9 | 0.00 | 0.00 | 0.00 | 80 | 1018.9 |
| 20260507190034 | 48 | 136 | 0.0 | 0.0 | 0.00 | 0.00 | 0.00 | 79 | 1018.9 |
| 20260507184528 | 48 | 137 | 0.0 | 1.7 | 0.00 | 0.00 | 0.00 | 79 | 1018.8 |
| 20260507183036 | 49 | 136 | 0.0 | 2.6 | 0.00 | 0.00 | 0.00 | 79 | 1018.8 |
| 20260507181525 | 49 | 136 | 0.9 | 4.3 | 0.00 | 0.00 | 0.00 | 78 | 1018.7 |
| 20260507180019 | 50 | 133 | 0.9 | 3.5 | 0.00 | 0.00 | 0.00 | 77 | 1018.6 |
| 20260507174519 | 50 | 134 | 2.6 | 4.3 | 0.00 | 0.00 | 0.00 | 76 | 1018.6 |
| 20260507173019 | 51 | 138 | 2.6 | 4.3 | 0.00 | 0.00 | 0.00 | 73 | 1018.5 |
| 20260507171510 | 52 | 130 | 2.6 | 4.3 | 0.00 | 0.00 | 0.00 | 71 | 1018.4 |
| 20260507170010 | 52 | 137 | 1.7 | 4.3 | 0.00 | 0.00 | 0.00 | 70 | 1018.3 |
| 20260507164508 | 52 | 143 | 1.7 | 6.1 | 0.00 | 0.00 | 0.00 | 71 | 1018.3 |
| 20260507163005 | 53 | 128 | 3.5 | 7.0 | 0.00 | 0.00 | 0.00 | 70 | 1018.3 |
| 20260507161504 | 53 | 141 | 5.2 | 7.8 | 0.00 | 0.00 | 0.00 | 67 | 1018.4 |
| 20260507160004 | 55 | 130 | 4.3 | 7.8 | 0.00 | 0.00 | 0.00 | 63 | 1018.4 |
| 20260507154502 | 56 | 68 | 1.7 | 5.2 | 0.00 | 0.00 | 0.00 | 62 | 1018.3 |
| 20260507153002 | 56 | 68 | 2.6 | 4.3 | 0.00 | 0.00 | 0.00 | 61 | 1018.3 |
| 20260507151600 | 57 | 51 | 3.5 | 7.8 | 0.00 | 0.00 | 0.00 | 60 | 1018.3 |
| 20260507150100 | 57 | 53 | 2.6 | 5.2 | 0.00 | 0.00 | 0.00 | 59 | 1018.4 |
| 20260507144605 | 57 | 58 | 2.6 | 6.1 | 0.00 | 0.00 | 0.00 | 60 | 1018.3 |
| 20260507143101 | 57 | 59 | 2.6 | 4.3 | 0.00 | 0.00 | 0.00 | 59 | 1018.4 |
| 20260507141618 | 56 | 155 | 0.9 | 6.1 | 0.00 | 0.00 | 0.00 | 60 | 1018.4 |
| 20260507140100 | 56 | 88 | 3.5 | 7.0 | 0.00 | 0.00 | 0.00 | 60 | 1018.4 |
| 20260507134601 | 56 | 152 | 0.0 | 7.0 | 0.00 | 0.00 | 0.00 | 60 | 1018.4 |
| 20260507133050 | 56 | 75 | 0.9 | 7.0 | 0.00 | 0.00 | 0.00 | 59 | 1018.5 |
| 20260507131550 | 57 | 74 | 0.9 | 5.2 | 0.00 | 0.00 | 0.00 | 55 | 1018.4 |
| 20260507130056 | 56 | 61 | 3.5 | 8.7 | 0.00 | 0.00 | 0.00 | 57 | 1018.4 |
| 20260507124554 | 57 | 48 | 3.5 | 8.7 | 0.00 | 0.00 | 0.00 | 57 | 1018.4 |
| 20260507123054 | 56 | 79 | 3.5 | 7.8 | 0.00 | 0.00 | 0.00 | 56 | 1018.3 |
| 20260507121551 | 56 | 51 | 4.3 | 7.8 | 0.00 | 0.00 | 0.00 | 56 | 1018.3 |
| 20260507120038 | 56 | 57 | 3.5 | 6.1 | 0.00 | 0.00 | 0.00 | 55 | 1018.3 |
| 20260507114536 | 55 | 57 | 4.3 | 7.8 | 0.00 | 0.00 | 0.00 | 56 | 1018.2 |
| 20260507113034 | 55 | 94 | 4.3 | 8.7 | 0.00 | 0.00 | 0.00 | 58 | 1018.3 |
| 20260507111537 | 55 | 55 | 5.2 | 10.4 | 0.00 | 0.00 | 0.00 | 58 | 1018.3 |
| 20260507110035 | 54 | 54 | 6.1 | 9.6 | 0.00 | 0.00 | 0.00 | 57 | 1018.3 |
| 20260507104534 | 54 | 60 | 5.2 | 10.4 | 0.00 | 0.00 | 0.00 | 57 | 1018.2 |
| 20260507103035 | 53 | 86 | 5.2 | 9.6 | 0.00 | 0.00 | 0.00 | 59 | 1018.1 |
| 20260507101532 | 53 | 55 | 7.0 | 11.3 | 0.00 | 0.00 | 0.00 | 59 | 1018.1 |
| 20260507100047 | 52 | 42 | 6.1 | 11.3 | 0.00 | 0.00 | 0.00 | 58 | 1017.9 |
| 20260507094547 | 52 | 62 | 8.7 | 12.2 | 0.00 | 0.00 | 0.00 | 57 | 1017.8 |
| 20260507093046 | 51 | 70 | 9.6 | 12.2 | 0.00 | 0.00 | 0.00 | 58 | 1017.8 |
| 20260507091546 | 51 | 72 | 8.7 | 13.0 | 0.00 | 0.00 | 0.00 | 56 | 1017.7 |
| 20260507090045 | 51 | 61 | 8.7 | 12.2 | 0.00 | 0.00 | 0.00 | 54 | 1017.7 |
| 20260507084546 | 51 | 71 | 8.7 | 12.2 | 0.00 | 0.00 | 0.00 | 52 | 1017.7 |
| 20260507083047 | 51 | 64 | 8.7 | 12.2 | 0.00 | 0.00 | 0.00 | 49 | 1017.6 |
| 20260507081543 | 50 | 71 | 6.1 | 12.2 | 0.00 | 0.00 | 0.00 | 51 | 1017.5 |
| 20260507080039 | 50 | 65 | 3.5 | 11.3 | 0.00 | 0.00 | 0.00 | 56 | 1017.3 |
| 20260507074535 | 50 | 60 | 6.1 | 9.6 | 0.00 | 0.00 | 0.00 | 50 | 1017.1 |
| 20260507073034 | 49 | 61 | 6.1 | 10.4 | 0.00 | 0.00 | 0.00 | 49 | 1017.1 |
| 20260507071533 | 48 | 57 | 3.5 | 5.2 | 0.00 | 0.00 | 0.00 | 51 | 1017.1 |
| 20260507070030 | 48 | 34 | 4.3 | 9.6 | 0.00 | 0.00 | 0.00 | 46 | 1017.0 |
| 20260507064529 | 47 | 38 | 5.2 | 9.6 | 0.00 | 0.00 | 0.00 | 48 | 1016.8 |
| 20260507063031 | 46 | 37 | 4.3 | 9.6 | 0.00 | 0.00 | 0.00 | 50 | 1016.8 |
| 20260507061529 | 44 | 44 | 4.3 | 9.6 | 0.00 | 0.00 | 0.00 | 54 | 1016.8 |
| 20260507060026 | 43 | 43 | 1.7 | 4.3 | 0.00 | 0.00 | 0.00 | 56 | 1016.7 |
| 20260507054524 | 42 | 17 | 0.9 | 4.3 | 0.00 | 0.00 | 0.00 | 58 | 1016.6 |
| 20260507053024 | 41 | 10 | 1.7 | 4.3 | 0.00 | 0.00 | 0.00 | 59 | 1016.5 |
| 20260507051522 | 39 | 22 | 2.6 | 7.8 | 0.00 | 0.00 | 0.00 | 63 | 1016.4 |
| 20260507050036 | 37 | 19 | 1.7 | 5.2 | 0.00 | 0.00 | 0.00 | 67 | 1016.3 |
| 20260507044529 | 36 | 278 | 0.9 | 4.3 | 0.00 | 0.00 | 0.00 | 70 | 1016.2 |
| 20260507043027 | 35 | 287 | 0.9 | 4.3 | 0.00 | 0.00 | 0.00 | 71 | 1016.1 |
| 20260507041542 | 35 | 268 | 1.7 | 3.5 | 0.00 | 0.00 | 0.00 | 71 | 1016.0 |
| 20260507040016 | 35 | 360 | 0.9 | 3.5 | 0.00 | 0.00 | 0.00 | 70 | 1015.9 |
| 20260507034515 | 35 | 268 | 0.9 | 3.5 | 0.00 | 0.00 | 0.00 | 70 | 1015.7 |
| 20260507033014 | 35 | 264 | 0.9 | 3.5 | 0.00 | 0.00 | 0.00 | 69 | 1015.6 |
| 20260507031511 | 35 | 5 | 0.9 | 2.6 | 0.00 | 0.00 | 0.00 | 69 | 1015.5 |
| 20260507030012 | 36 | 5 | 0.9 | 5.2 | 0.00 | 0.00 | 0.00 | 69 | 1015.4 |
| 20260507024510 | 36 | 265 | 0.9 | 4.3 | 0.00 | 0.00 | 0.00 | 69 | 1015.4 |
| 20260507023008 | 37 | 268 | 0.9 | 2.6 | 0.00 | 0.00 | 0.00 | 67 | 1015.2 |
| 20260507021505 | 37 | 36 | 1.7 | 4.3 | 0.00 | 0.00 | 0.00 | 64 | 1015.2 |
| 20260507020006 | 37 | 11 | 0.0 | 1.7 | 0.00 | 0.00 | 0.00 | 63 | 1015.1 |
| 20260507014510 | 38 | 11 | 0.0 | 1.7 | 0.00 | 0.00 | 0.00 | 62 | 1015.0 |
| 20260507013115 | 39 | 12 | 0.0 | 2.6 | 0.00 | 0.00 | 0.00 | 61 | 1014.9 |
| 20260507011557 | 40 | 290 | 0.9 | 1.7 | 0.00 | 0.00 | 0.00 | 59 | 1014.8 |
| 20260507010003 | 40 | 9 | 0.9 | 4.3 | 0.00 | 0.00 | 0.00 | 57 | 1014.7 |
| 20260507004600 | 40 | 247 | 0.9 | 7.8 | 0.00 | 0.00 | 0.00 | 55 | 1014.7 |
| 20260507003059 | 40 | 296 | 0.9 | 6.1 | 0.00 | 0.00 | 0.00 | 55 | 1014.6 |
| 20260507001620 | 41 | 5 | 0.9 | 4.3 | 0.00 | 0.00 | 0.00 | 55 | 1014.5 |
| 20260507000042 | 42 | 242 | 0.9 | 4.3 | 0.00 | 0.00 | 0.00 | 55 | 1014.4 |
| 20260506234539 | 42 | 244 | 2.6 | 6.1 | 0.00 | 0.00 | 0.00 | 52 | 1014.3 |
| 20260506233043 | 42 | 246 | 2.6 | 6.1 | 0.00 | 0.00 | 0.00 | 51 | 1014.3 |
| 20260506231540 | 42 | 262 | 1.7 | 5.2 | 0.00 | 0.00 | 0.00 | 51 | 1014.2 |
| 20260506230044 | 43 | 264 | 2.6 | 8.7 | 0.00 | 0.00 | 0.00 | 51 | 1014.2 |